Weather History for St. Paul, MN

Change the Weather History Date:

Thursday, August 28, 2014

  Actual Average Record
Temperature  
Mean Temperature 66 °F -  
Max Temperature 73 °F 78 °F 91 °F (2013)
Min Temperature 61 °F 58 °F 53 °F (1996)
Cooling Degree Days 2    
Growing Degree Days 16 (Base 50)    
Moisture  
Dew Point 61 °F    
Average Humidity 81    
Maximum Humidity 96    
Minimum Humidity 68    
Precipitation  
Precipitation 0.02 in - - ()
Sea Level Pressure  
Sea Level Pressure 30.02 in    
Wind  
Wind Speed 7 mph (SE)    
Max Wind Speed 13 mph    
Max Gust Speed -    
Visibility 10 miles    
Events Rain    
Averages and records for this station are not official NWS values.
T = Trace of Precipitation, MM = Missing Value Source: NWS Daily Summary

Daily Weather History Graph

Daily Weather History Graph

Search for Another Location

Airport:

Trip Planner

Search our weather history database for the weather conditions in past years. The results will help you decide how hot, cold, wet, or windy it might be!

Date:

Astronomy

Aug. 28, 2014 Rise Set
Actual Time 6:29 AM CDT 7:56 PM CDT
Civil Twilight 5:58 AM CDT 8:26 PM CDT
Nautical Twilight 5:21 AM CDT 9:03 PM CDT
Astronomical Twilight 4:42 AM CDT 9:43 PM CDT
Moon 9:32 AM CDT (8/28) 9:10 PM CDT (8/28)
Length of Visible Light 14h 27m
Length of Day
13h 26m
Waxing Crescent, 9% of the Moon is Illuminated
Aug 28
Waxing Crescent
Sep 2
First Quarter
Sep 8
Full
Sep 15
Last Quarter
Sep 24
New

Hourly Weather History & Observations

Time (CDT) Temp. Dew Point Humidity Pressure Visibility Wind Dir Wind Speed Gust Speed Precip Events Conditions
12:53 AM 64.9 °F 57.9 °F 78% 30.13 in 10.0 mi Calm Calm - N/A   Clear
1:53 AM 63.0 °F 57.0 °F 81% 30.13 in 10.0 mi ESE 8.1 mph - N/A   Clear
2:53 AM 63.0 °F 55.9 °F 78% 30.12 in 10.0 mi East 3.5 mph - N/A   Clear
3:53 AM 62.1 °F 55.0 °F 78% 30.10 in 10.0 mi Calm Calm - N/A   Clear
4:53 AM 62.1 °F 55.9 °F 80% 30.09 in 10.0 mi SE 5.8 mph - N/A   Clear
5:53 AM 61.0 °F 55.9 °F 83% 30.07 in 10.0 mi SSE 8.1 mph - N/A   Clear
6:53 AM 61.0 °F 55.0 °F 81% 30.08 in 10.0 mi ESE 5.8 mph - N/A   Clear
7:53 AM 63.0 °F 55.9 °F 78% 30.08 in 10.0 mi SE 9.2 mph - N/A   Clear
8:53 AM 64.9 °F 55.9 °F 73% 30.08 in 10.0 mi SSE 11.5 mph - N/A   Clear
9:53 AM 68.0 °F 57.9 °F 70% 30.07 in 10.0 mi SE 10.4 mph - N/A   Clear
10:53 AM 71.1 °F 60.1 °F 68% 30.06 in 10.0 mi SSE 8.1 mph - N/A   Partly Cloudy
11:53 AM 72.0 °F 61.0 °F 68% 30.05 in 10.0 mi SE 10.4 mph - N/A   Partly Cloudy
12:53 PM 72.0 °F 61.0 °F 68% 30.03 in 10.0 mi SE 8.1 mph - N/A   Partly Cloudy
1:53 PM 70.0 °F 61.0 °F 73% 30.01 in 10.0 mi SE 9.2 mph - 0.00 in Rain Light Rain
2:01 PM 70.0 °F 62.1 °F 76% 30.02 in 10.0 mi SE 10.4 mph - 0.00 in Rain Light Rain
2:40 PM 68.0 °F 64.0 °F 87% 30.01 in 3.0 mi SE 5.8 mph - 0.02 in Rain Rain
2:53 PM 68.0 °F 64.9 °F 90% 29.99 in 10.0 mi ESE 8.1 mph - 0.02 in Rain Light Rain
3:28 PM 69.1 °F 64.9 °F 87% 29.99 in 10.0 mi ESE 11.5 mph - 0.00 in   Overcast
3:53 PM 69.1 °F 64.0 °F 84% 29.98 in 10.0 mi ESE 10.4 mph - 0.00 in   Overcast
4:53 PM 69.1 °F 64.0 °F 84% 29.97 in 10.0 mi SE 12.7 mph - N/A   Overcast
5:53 PM 68.0 °F 64.0 °F 87% 29.96 in 10.0 mi SE 12.7 mph - N/A   Overcast
6:53 PM 68.0 °F 63.0 °F 84% 29.95 in 10.0 mi SE 12.7 mph - N/A   Overcast
7:53 PM 66.9 °F 64.0 °F 90% 29.94 in 10.0 mi ESE 10.4 mph - N/A   Overcast
8:53 PM 66.0 °F 64.9 °F 96% 29.94 in 5.0 mi ESE 9.2 mph - 0.00 in   Overcast
9:53 PM 66.9 °F 64.0 °F 90% 29.92 in 10.0 mi SE 9.2 mph - N/A   Overcast
10:53 PM 66.9 °F 64.0 °F 90% 29.91 in 10.0 mi SE 12.7 mph - N/A   Overcast
11:53 PM 66.9 °F 64.0 °F 90% 29.89 in 10.0 mi SE 10.4 mph - 0.00 in Rain Light Rain